This is the latest recevied weather packets stored in our database for station/object KR4ELZ. If no packets are shown the sender has not sent any weather packets the latest 10 day(s).
| Time | Temp. | Humidity | Pressure | Rain* | Wind** | Luminosity | Snow |
|---|---|---|---|---|---|---|---|
| 1777603823 | 12.22° C | 79% | 1016 hPa | 0 mm | - | 0 W/m² | - |
| 1777603519 | 12.22° C | 81% | 1015.7 hPa | 0 mm | - | 0 W/m² | - |
| 1777603215 | 12.22° C | 80% | 1016 hPa | 0 mm | - | 0 W/m² | - |
| 1777602911 | 12.22° C | 80% | 1015.8 hPa | 0 mm | - | 0 W/m² | - |
| 1777602606 | 12.22° C | 78% | 1016 hPa | 0 mm | - | 0 W/m² | - |
| 1777602301 | 12.22° C | 78% | 1015.8 hPa | 0 mm | - | 0 W/m² | - |
| 1777601997 | 12.22° C | 76% | 1015.8 hPa | 0 mm | - | 0 W/m² | - |
| 1777601692 | 12.78° C | 77% | 1015.8 hPa | 0 mm | - | 0 W/m² | - |
| 1777601388 | 12.78° C | 77% | 1015.7 hPa | 0 mm | - | 0 W/m² | - |
| 1777601084 | 12.78° C | 78% | 1015.7 hPa | 0 mm | - | 0 W/m² | - |
| 1777600782 | 12.78° C | 78% | 1015.5 hPa | 0 mm | - | 0 W/m² | - |
| 1777600477 | 12.78° C | 78% | 1015.3 hPa | 0 mm | - | 0 W/m² | - |
| 1777600173 | 13.33° C | 78% | 1015.6 hPa | 0 mm | - | 0 W/m² | - |
| 1777599869 | 13.33° C | 77% | 1015.4 hPa | 0 mm | - | 0 W/m² | - |
| 1777599565 | 13.33° C | 77% | 1015.4 hPa | 0 mm | - | 0 W/m² | - |
| 1777599262 | 13.33° C | 76% | 1015.2 hPa | 0 mm | - | 0 W/m² | - |
| 1777598958 | 13.33° C | 77% | 1015.3 hPa | 0 mm | - | 0 W/m² | - |
| 1777598656 | 13.33° C | 75% | 1015.1 hPa | 0 mm | - | 0 W/m² | - |
| 1777598351 | 13.33° C | 74% | 1015 hPa | 0 mm | - | 0 W/m² | - |
| 1777598050 | 13.33° C | 76% | 1015 hPa | 0 mm | - | 0 W/m² | - |
| 1777597749 | 13.33° C | 74% | 1014.8 hPa | 0 mm | - | 0 W/m² | - |
| 1777597445 | 13.33° C | 74% | 1014.9 hPa | 0 mm | - | 0 W/m² | - |
| 1777597140 | 13.89° C | 74% | 1014.8 hPa | 0 mm | - | 0 W/m² | - |
| 1777596836 | 13.89° C | 69% | 1014.8 hPa | 0 mm | - | 0 W/m² | - |
| 1777596532 | 13.89° C | 71% | 1014.7 hPa | 0 mm | - | 0 W/m² | - |
* Rain latest hour (hover to see other rain measurements)
** Current wind speed in m/s (hover to see current wind gust speed)